Theta_e
325 324 324 324 323 323 323 322 322 323 323 322 323 323 323 322 322 322 323 323 323 324 324 324 325 325 325 326 326 325 321 311 310 306 302 301 311 333 335 335 334 335 331 302 301 301 298 298 300 298 300 299 300 301 301 300 297 297 292 286 287 283 286 287 288 288 289 290 291 290 290 293 291 293 296 295 294 291 293 297 293 302 308 312 313 311 310 313
325 324 323 323 322 322 322 321 322 322 322 322 322 322 322 322 321 322 322 322 323 323 323 324 324 325 325 325 325 323 315 310 305 303 302 313 334 335 336 336 336 335 323 303 300 296 298 296 296 298 300 299 300 300 301 300 297 290 287 287 289 285 288 291 288 289 290 292 290 290 289 291 291 292 294 294 292 292 295 295 293 299 299 308 313 311 313 318
324 324 323 322 322 321 321 321 322 322 321 321 322 321 321 321 321 320 321 322 322 322 323 323 324 324 325 325 324 324 307 302 299 300 305 334 335 336 335 333 335 330 307 301 296 297 298 299 296 297 294 296 295 298 297 298 297 291 291 289 284 290 289 289 288 290 289 290 290 291 290 290 292 293 293 294 290 290 292 292 293 294 296 303 310 312 316 318
324 323 322 322 321 321 321 322 321 321 321 321 321 321 320 319 319 320 321 321 322 322 322 322 323 324 323 324 324 313 303 298 294 295 299 335 334 335 336 334 335 322 304 298 296 296 296 297 295 297 295 293 292 296 297 297 296 292 290 287 290 288 293 293 288 290 288 290 291 290 289 291 292 290 292 289 292 291 289 289 296 295 295 305 311 311 315 317
323 322 322 321 321 321 321 321 321 321 321 321 320 320 319 319 319 320 320 320 321 321 321 322 322 323 323 323 323 306 299 292 293 296 308 332 335 334 334 337 327 309 308 299 299 296 296 295 293 292 295 292 293 295 293 294 293 293 292 289 290 288 292 293 289 288 289 287 289 287 292 292 292 292 289 291 291 289 293 296 294 296 296 309 312 314 313 317
322 322 322 321 321 320 320 320 320 320 320 320 319 318 318 319 319 319 320 320 320 321 321 322 322 322 323 322 312 304 296 286 298 307 324 332 333 335 334 332 323 303 302 299 298 297 300 297 298 296 291 293 293 293 293 292 294 294 289 288 287 288 294 291 290 290 287 289 289 289 291 291 291 292 286 289 293 290 291 292 292 293 299 310 314 315 316 316
322 322 322 321 320 320 319 320 320 320 320 319 318 318 319 319 319 319 319 319 320 320 321 321 322 322 323 319 306 303 297 294 303 311 327 331 334 333 332 325 317 302 300 300 299 299 294 294 294 292 289 288 290 291 293 294 290 290 291 288 292 287 293 289 291 287 286 289 289 290 290 292 290 293 289 288 292 291 290 289 289 290 310 313 313 314 316 316
321 321 321 320 320 320 319 320 320 319 319 318 318 318 319 319 318 318 318 318 319 320 321 320 321 322 322 306 302 297 298 296 304 309 325 326 325 327 316 305 303 302 301 299 298 295 294 295 295 291 291 292 290 293 292 293 292 292 291 289 290 289 290 288 287 286 287 288 289 289 291 292 288 291 289 289 293 293 291 293 296 304 309 308 311 313 314 313
320 320 320 319 319 320 319 320 319 318 318 318 318 318 318 318 318 318 317 318 319 319 320 321 320 321 322 301 294 293 293 300 309 312 309 307 310 309 308 307 303 302 298 297 298 297 298 294 292 294 293 290 291 292 290 292 292 289 292 288 290 291 289 288 290 287 287 290 289 291 290 289 288 288 291 293 292 290 290 297 300 304 306 307 310 313 313 312
320 320 320 319 319 319 320 319 318 318 318 318 318 317 317 317 317 317 318 318 319 319 320 321 322 320 308 298 294 289 297 309 312 307 305 303 306 308 306 305 302 301 301 299 296 296 299 294 295 295 293 291 291 292 288 292 289 287 289 289 290 290 289 289 291 288 288 290 288 292 289 290 289 290 288 290 290 287 294 296 299 304 305 307 307 310 311 311
320 320 320 319 319 319 319 319 318 318 317 317 317 317 317 316 317 317 317 318 318 319 320 320 321 317 305 296 292 289 305 310 309 306 304 303 305 305 306 304 301 302 300 300 298 296 297 296 295 296 298 293 293 290 290 292 290 289 290 289 289 286 290 288 289 290 289 293 287 292 290 290 289 289 290 290 289 289 293 294 298 297 301 305 306 307 309 310
320 320 319 319 319 319 318 318 317 317 317 316 316 316 316 316 316 317 317 318 317 319 319 320 319 306 296 294 290 294 303 310 308 306 305 306 306 306 304 303 303 302 301 299 301 302 297 296 298 296 292 295 291 291 292 291 291 289 292 291 287 285 294 289 291 290 289 293 291 289 291 289 290 289 290 288 286 290 291 293 293 295 297 298 301 303 306 310
319 319 319 319 319 318 317 317 316 316 316 316 316 316 316 316 316 316 317 317 318 319 319 320 315 310 300 294 294 300 305 306 308 306 306 305 304 304 304 303 304 300 301 301 300 303 298 298 297 296 295 292 289 290 291 291 288 290 288 285 287 283 286 290 288 289 290 291 289 289 283 281 283 291 292 290 286 288 292 290 291 292 291 291 292 299 304 305
318 318 319 318 318 317 317 317 316 315 316 315 315 315 315 316 316 316 317 317 317 319 320 319 310 307 295 290 298 308 308 309 308 306 305 307 304 305 303 303 303 302 304 302 301 300 301 296 297 295 295 294 293 297 293 287 287 290 288 284 282 285 283 288 288 288 290 291 289 289 284 281 280 284 285 285 287 290 290 289 288 289 290 290 290 291 297 301
318 318 318 317 317 317 317 316 315 315 314 314 315 315 315 316 316 316 317 316 318 320 320 316 304 297 292 292 302 308 321 310 306 306 305 304 302 303 303 303 303 302 301 303 303 302 299 300 299 295 295 293 295 292 286 284 283 282 285 283 279 282 282 284 288 287 289 291 287 288 282 285 287 287 285 287 286 288 290 289 287 287 288 289 289 290 292 295
318 318 317 317 317 317 316 316 315 315 314 314 315 315 317 317 316 316 317 318 319 320 313 309 305 294 290 290 304 316 306 303 302 305 306 305 304 303 302 301 303 301 301 301 300 299 298 300 295 293 293 293 290 287 284 286 284 282 284 281 284 282 280 284 291 286 288 290 289 288 284 281 288 287 285 288 286 287 288 287 286 287 288 289 290 291 292 293
317 318 317 317 317 316 315 315 315 314 314 314 315 316 316 316 317 319 320 318 314 315 312 304 306 300 291 298 305 303 300 303 305 307 304 304 305 302 302 301 300 299 299 300 300 300 297 296 293 292 290 289 285 288 285 282 280 286 281 281 279 282 282 283 285 288 288 289 289 287 287 284 287 287 285 287 290 288 289 289 289 289 289 290 289 290 291 292
318 318 317 316 316 316 315 315 314 314 314 314 315 315 312 317 320 318 315 312 311 311 308 308 302 295 293 300 296 297 301 303 306 305 304 303 301 301 300 299 298 298 299 299 298 297 296 294 291 290 288 288 288 286 285 282 285 281 284 282 283 281 280 281 284 288 289 288 288 287 287 289 291 292 292 291 289 290 290 292 291 291 292 293 291 291 291 292
318 317 316 316 316 315 315 314 314 314 314 315 316 317 318 319 310 308 306 304 296 292 292 294 291 286 285 292 299 303 304 305 305 305 304 305 303 301 300 299 299 300 295 292 294 295 292 292 292 288 287 284 287 288 287 284 284 285 286 283 280 284 283 283 282 283 288 288 288 285 288 289 290 290 292 293 289 289 289 288 288 289 290 290 291 292 292 293
318 317 317 316 315 315 314 314 314 314 315 312 312 310 299 295 297 297 301 301 293 292 293 295 294 292 296 296 300 304 305 304 302 300 305 304 303 301 298 297 297 294 293 292 294 293 291 288 287 287 289 288 288 287 286 283 286 285 283 280 281 281 281 281 283 286 286 288 286 285 285 285 289 291 292 293 290 288 288 290 291 291 291 291 291 291 291 292
317 317 317 316 315 314 314 314 314 314 314 309 309 298 290 291 288 287 294 296 297 295 295 295 294 298 297 300 301 300 300 298 300 301 304 308 304 301 296 296 294 291 290 289 292 292 291 287 287 288 289 290 288 285 286 285 284 286 283 283 282 282 284 286 288 286 286 288 283 281 284 286 287 289 290 291 287 290 291 292 291 292 292 292 291 292 292 293
317 317 316 316 315 314 314 313 314 314 314 309 307 295 293 293 295 296 295 289 294 297 297 296 298 300 301 300 302 300 298 295 299 301 305 304 300 298 293 293 289 291 290 290 291 291 288 287 289 289 286 285 284 284 284 285 284 282 285 282 283 283 281 284 285 286 285 288 283 281 285 289 290 291 292 291 292 292 289 289 291 291 291 292 291 291 292 292
317 317 316 316 314 314 313 313 313 314 309 306 303 300 299 303 302 300 295 291 291 296 297 297 296 298 299 301 302 302 296 292 293 298 302 303 298 296 293 291 289 289 290 290 289 286 285 286 289 286 286 288 285 284 285 284 283 282 282 283 283 283 286 285 285 286 286 285 286 284 285 289 289 286 288 289 290 289 288 288 289 289 291 292 293 292 292 292
317 317 316 315 314 314 314 313 314 311 308 306 301 299 302 302 302 301 294 289 289 294 298 297 298 297 297 299 302 296 294 293 295 297 301 300 297 295 294 289 288 289 289 287 289 289 285 287 287 286 286 289 287 285 286 286 286 283 282 281 282 284 283 282 285 284 282 284 282 283 283 285 280 281 283 286 283 283 284 284 285 288 289 290 290 290 291 291
317 316 315 314 314 315 313 315 309 306 307 306 303 304 302 302 301 298 292 288 287 292 298 298 299 299 301 306 303 298 294 296 298 299 301 300 293 294 293 290 290 288 289 285 287 287 286 286 286 287 286 286 286 284 285 287 283 286 283 283 283 282 285 285 282 285 277 282 281 282 280 276 279 280 281 282 283 287 284 285 288 287 286 285 287 289 289 290
316 315 314 314 314 314 316 307 306 306 304 302 303 301 303 301 300 297 291 284 282 287 294 291 300 295 306 299 300 297 297 293 297 299 302 299 299 295 292 290 289 289 285 287 287 284 284 287 286 287 287 285 286 286 285 287 282 283 286 284 283 283 284 283 283 281 279 279 283 280 281 276 280 282 285 282 282 286 286 284 286 286 287 284 287 288 287 287
315 315 315 314 314 315 307 299 308 306 300 300 306 303 300 302 301 297 289 280 279 289 288 294 294 294 302 298 300 295 287 288 300 299 299 301 299 299 292 288 288 288 288 288 286 286 287 286 286 286 286 285 284 284 286 287 285 284 283 282 284 285 285 282 282 282 279 279 282 280 277 278 280 283 282 280 281 284 285 285 286 288 287 288 287 286 285 286
315 315 315 314 314 315 306 305 305 302 299 301 303 305 302 300 297 293 286 274 274 292 288 288 294 300 300 297 295 291 290 295 293 295 298 300 298 293 290 287 290 290 288 286 283 286 287 286 286 286 284 284 286 284 286 286 285 284 283 284 284 284 281 280 280 279 279 281 281 277 283 280 277 281 282 281 285 283 283 284 287 288 289 289 289 289 287 284
315 315 315 315 315 315 308 305 304 301 302 301 304 305 303 297 292 289 281 273 287 286 300 290 302 300 295 297 293 291 292 293 289 293 297 297 298 295 289 287 288 288 287 288 285 286 289 288 287 288 287 285 285 285 284 288 288 286 283 283 282 282 281 280 278 280 279 279 274 279 281 276 278 279 280 279 283 281 281 285 286 287 288 290 291 291 291 289
315 315 315 315 315 313 310 308 303 303 303 303 302 299 296 293 290 284 277 272 289 283 290 292 293 290 292 292 289 290 292 291 292 294 294 294 295 292 291 290 291 290 289 288 286 286 289 290 290 287 287 286 286 284 284 284 287 286 284 286 283 280 279 278 277 276 275 272 275 278 277 278 276 279 280 284 285 281 281 284 284 287 289 290 290 290 291 290
315 315 314 315 309 311 312 304 307 304 303 302 300 297 294 287 282 277 272 280 289 288 288 288 287 294 291 290 287 287 290 288 293 293 292 294 292 291 291 291 290 285 285 283 287 285 288 288 289 287 286 284 286 286 285 285 284 286 284 280 284 281 278 278 272 275 272 268 272 276 278 277 275 275 282 281 282 282 286 287 285 286 288 288 289 290 290 289
315 314 315 313 314 315 307 303 308 306 305 303 301 296 292 283 282 277 274 288 282 284 284 284 285 289 291 292 288 288 290 290 291 291 291 288 288 288 289 287 287 280 281 282 283 284 287 288 286 289 288 288 286 288 286 286 282 282 282 285 279 272 270 274 268 274 271 269 278 276 277 278 278 280 284 284 285 283 282 284 286 287 287 287 287 289 289 288
315 314 315 314 314 311 311 308 307 306 305 302 296 290 287 280 273 281 278 282 280 285 284 287 285 288 290 289 287 288 288 289 289 290 289 289 288 287 288 287 287 285 281 282 283 283 283 282 286 289 290 289 289 287 284 284 283 282 285 279 274 271 268 265 259 261 266 272 276 277 278 277 278 281 287 289 288 284 284 284 284 284 286 286 287 288 289 288
315 315 312 313 314 314 311 308 307 306 304 297 294 287 281 273 276 289 282 280 283 284 285 284 287 287 290 288 287 290 288 287 289 289 290 287 288 286 288 288 286 284 282 281 284 283 278 279 285 289 286 289 289 288 290 287 285 285 282 284 281 269 266 265 263 271 271 270 273 274 274 272 275 282 286 286 286 284 283 284 284 283 285 286 285 285 285 286
315 313 313 313 313 311 310 308 307 307 301 295 290 286 279 278 280 279 281 280 282 283 284 288 288 287 286 283 287 290 288 286 288 288 287 287 285 285 287 288 286 283 285 284 282 280 283 280 283 287 287 289 290 288 287 286 285 283 280 281 278 277 274 271 266 264 263 268 269 273 275 275 281 284 285 285 284 285 284 285 285 285 283 282 285 285 285 283
313 311 313 310 311 311 310 309 307 304 298 293 287 281 280 281 274 280 282 285 285 284 284 286 284 286 283 284 287 288 290 287 288 287 286 286 286 287 287 287 288 288 287 285 283 280 280 281 285 285 285 288 288 287 288 288 285 284 283 278 280 279 279 270 268 270 270 268 271 268 277 280 280 284 289 283 284 285 284 284 285 284 282 281 284 284 283 286
308 311 307 310 311 312 311 310 307 302 296 291 286 281 283 282 283 281 291 287 285 289 286 283 283 283 282 283 285 287 288 290 286 285 283 286 286 286 286 287 289 288 289 288 283 283 282 280 285 286 287 288 287 286 286 285 286 283 279 281 281 281 279 277 272 264 261 268 271 270 275 276 275 279 281 282 285 284 285 285 282 284 282 288 290 288 289 289
303 305 306 307 310 312 312 310 306 301 294 289 284 288 282 284 287 287 288 286 287 286 284 283 283 285 283 283 283 287 287 287 285 285 283 286 283 289 287 287 288 291 290 286 287 285 285 280 284 284 285 287 285 288 288 288 287 283 281 284 284 279 277 277 271 269 266 265 266 269 272 273 276 279 278 283 283 285 285 284 284 288 290 290 291 291 290 290
303 302 298 303 310 311 310 310 305 298 291 285 284 285 286 284 287 284 286 288 288 285 284 282 283 284 284 283 285 287 288 284 286 284 284 283 283 286 290 290 287 289 290 287 286 284 286 280 280 285 285 287 287 286 284 285 286 286 285 284 284 279 275 273 275 269 271 266 263 268 267 275 277 278 278 283 282 282 283 283 282 286 289 290 291 291 292 293
299 295 294 307 309 311 311 309 301 296 289 283 285 282 286 287 288 286 286 288 286 285 285 284 283 283 283 284 286 285 286 286 286 285 285 285 286 287 287 291 289 288 290 288 287 288 284 281 276 283 286 286 285 284 285 286 282 281 282 281 285 279 281 279 276 273 274 263 261 265 269 272 277 279 281 285 283 282 282 285 285 287 287 287 289 291 292 293
299 295 294 308 310 310 307 304 296 290 288 284 284 284 286 286 287 289 290 290 288 289 285 285 285 283 282 284 284 287 285 284 286 285 284 285 287 284 288 291 289 288 288 288 287 287 284 281 279 281 282 283 283 284 284 286 287 286 286 283 286 280 277 275 276 276 267 271 268 262 273 272 280 281 285 284 283 284 282 283 286 285 286 286 288 291 291 292
296 287 292 306 309 309 302 293 292 291 286 284 284 285 286 296 288 289 289 290 289 288 289 286 285 283 282 286 286 286 286 284 285 285 285 285 288 286 288 290 289 291 291 286 287 287 286 282 282 277 283 286 286 286 283 285 285 285 285 284 286 284 280 273 273 273 271 272 270 267 269 275 282 282 282 281 281 281 282 287 289 288 286 287 290 290 290 290
293 290 302 304 306 304 297 290 292 289 284 284 289 287 289 288 288 289 289 290 290 289 287 286 286 285 284 285 285 285 288 285 286 286 286 287 286 288 287 288 291 291 292 287 288 285 291 281 280 279 279 281 283 284 285 284 287 287 285 281 284 284 283 281 274 275 279 272 272 269 267 275 278 281 281 280 280 280 281 287 291 288 288 288 289 290 290 291
292 294 297 303 305 303 293 286 286 288 286 289 287 288 290 290 289 288 289 290 288 289 288 287 288 289 285 284 284 286 288 283 285 286 285 285 287 288 288 288 292 290 291 288 290 290 284 282 284 273 273 277 279 284 283 284 285 282 282 282 284 282 278 277 277 274 274 275 277 275 273 276 283 280 282 283 285 285 287 285 285 290 288 288 288 288 286 285
292 293 294 297 304 300 287 288 288 287 286 287 287 286 288 287 289 290 290 290 290 287 288 287 288 287 287 285 286 286 287 286 282 286 286 283 287 288 289 287 291 290 290 292 295 293 287 283 282 277 276 274 273 274 279 282 283 282 278 281 283 285 281 281 278 275 275 274 278 273 277 279 282 281 286 285 285 286 285 284 283 284 287 288 287 286 287 285
287 282 289 294 298 295 294 295 292 289 287 287 286 286 287 286 288 289 291 292 291 291 290 289 289 288 287 286 285 285 286 285 284 284 286 285 285 287 287 286 288 290 291 294 292 292 281 282 284 284 282 280 282 281 284 285 282 282 282 283 283 284 284 284 279 275 279 277 276 280 283 282 282 284 284 286 284 287 288 286 287 288 286 285 284 285 286 287
289 284 285 283 291 290 287 290 287 290 286 291 286 288 286 286 287 289 292 290 292 292 291 290 289 289 287 286 285 285 285 286 283 284 285 285 284 286 286 287 288 290 294 291 291 287 281 283 284 284 285 285 282 280 283 288 284 285 283 283 284 284 284 284 282 282 284 276 276 282 283 282 283 281 283 284 285 284 287 288 287 284 284 285 287 286 288 286
283 286 289 290 287 284 285 285 288 287 290 291 288 290 287 286 286 284 290 290 292 293 290 290 290 290 290 288 287 282 285 284 285 284 282 283 286 287 288 289 289 290 291 290 290 288 284 283 284 283 284 284 282 280 283 285 286 286 286 285 283 284 284 283 284 286 284 281 281 284 282 282 285 285 287 287 288 289 288 290 289 286 284 285 287 289 287 286
287 285 286 290 286 286 287 288 288 288 288 290 288 290 287 288 287 288 288 288 290 290 290 285 287 289 288 289 287 284 285 282 282 283 280 281 283 283 284 288 289 287 289 288 288 285 287 281 283 284 284 284 281 281 282 285 284 284 285 285 286 285 284 285 286 287 286 284 286 285 282 285 288 287 288 289 288 289 287 286 286 287 287 288 287 287 287 286
283 284 283 286 286 285 287 289 287 287 285 290 285 287 288 289 288 291 291 289 285 287 291 288 286 288 288 288 287 285 287 287 285 284 283 285 282 282 284 283 285 286 286 287 287 286 287 281 286 282 280 281 281 280 281 282 283 282 282 284 285 285 285 286 287 287 286 285 285 284 281 282 286 285 288 290 287 287 287 287 289 289 287 286 286 286 285 286
288 288 289 284 283 283 287 289 287 286 285 287 285 287 288 289 289 292 291 293 289 287 290 289 288 289 290 290 289 288 289 288 287 288 287 287 286 287 286 286 288 286 285 286 285 288 286 280 280 279 278 276 280 281 281 281 280 279 280 281 282 283 282 284 284 286 284 283 285 284 283 284 289 286 289 288 286 287 289 289 289 289 288 287 288 285 285 286
288 289 290 287 281 288 286 285 288 287 284 287 287 287 288 288 290 292 288 292 293 293 292 291 291 291 288 289 290 290 292 292 292 292 292 291 291 290 289 288 287 286 285 285 285 285 284 283 280 277 277 277 278 280 279 278 277 276 279 283 284 285 286 287 287 286 287 289 285 283 284 291 288 288 288 286 287 288 288 288 289 288 286 286 286 286 286 285
Wind_Speed
18 18 18 17 16 16 15 14 14 14 13 13 12 12 10 9 8 7 6 7 7 5 5 4 4 3 3 2 2 2 1 2 1 1 1 7 4 5 5 6 7 6 4 3 3 3 1 2 4 3 4 4 3 2 1 3 1 1 2 5 0 2 2 5 5 8 2 1 2 3 4 5 2 0 1 1 3 2 1 0 3 1 2 1 3 2 3 3
19 19 19 17 17 15 15 13 12 13 13 12 12 11 10 9 7 7 7 7 7 6 4 3 4 2 1 1 1 3 3 1 2 1 11 1 6 6 6 6 5 5 3 2 5 4 6 1 2 4 4 3 2 1 1 0 2 3 2 3 6 4 4 6 4 5 3 2 2 3 1 2 4 5 1 2 1 0 1 1 1 2 3 1 3 1 5 8
20 18 18 17 16 15 14 15 14 13 12 12 11 10 10 8 7 6 6 6 5 4 3 4 3 2 1 1 3 7 1 1 0 4 9 8 6 5 5 6 5 4 1 2 4 6 7 8 6 6 3 4 7 1 2 0 1 1 4 3 3 8 3 4 3 2 4 3 3 4 1 2 1 2 1 2 2 0 6 4 1 2 5 4 3 1 6 7
19 18 18 17 16 15 16 15 15 14 13 12 11 10 8 6 5 6 6 5 4 3 4 4 3 1 0 2 4 5 1 3 2 3 1 6 9 6 5 5 4 3 2 3 4 4 4 7 5 7 3 6 2 1 2 1 1 1 2 3 3 4 1 2 5 3 3 2 2 5 1 1 1 2 1 3 4 3 6 6 8 9 9 6 4 4 6 8
19 18 18 17 15 15 15 15 14 14 12 11 10 9 7 6 7 7 5 4 3 2 3 4 2 1 1 2 9 3 3 1 6 1 1 4 7 6 6 5 5 3 1 6 8 5 5 5 4 3 4 2 2 1 1 1 1 4 1 1 1 1 0 0 3 2 2 4 5 3 6 4 1 0 2 7 5 6 7 8 9 8 6 11 10 9 5 8
18 18 17 16 16 16 15 14 15 14 14 11 9 9 8 9 8 6 5 2 1 2 3 3 2 1 1 5 4 2 2 6 1 1 1 5 5 6 5 5 5 5 7 3 3 3 7 2 5 3 2 3 3 5 1 1 1 3 1 1 3 2 0 1 1 1 5 4 6 6 4 3 2 1 1 4 8 4 5 1 3 5 4 3 6 10 9 9
16 16 16 15 16 16 14 14 14 13 12 10 10 9 10 9 7 5 4 2 1 1 2 3 2 1 4 4 2 3 2 5 1 1 1 4 5 6 7 6 6 5 3 5 3 3 2 4 4 4 5 4 0 2 0 1 2 3 3 0 1 3 0 2 1 1 2 7 4 2 1 1 2 3 1 3 8 5 1 1 3 3 6 8 11 11 15 15
16 15 14 13 14 13 15 14 12 12 12 11 10 10 10 9 6 4 3 2 0 1 2 3 2 2 4 3 2 0 0 4 0 3 1 6 5 7 7 4 5 4 4 6 7 4 5 6 6 2 4 8 3 5 1 4 2 1 0 2 1 1 1 2 0 3 1 1 0 3 4 0 4 1 1 6 10 6 4 2 2 4 6 5 7 12 9 9
16 16 16 15 14 13 14 15 13 13 12 11 11 10 9 8 5 3 2 1 1 1 1 1 2 2 5 0 4 3 5 1 0 1 0 6 5 5 2 2 1 5 3 2 0 7 6 3 3 4 3 2 2 5 1 6 3 3 1 4 1 0 2 2 1 3 2 1 1 3 0 2 2 2 3 9 7 4 1 2 4 5 5 7 10 12 11 11
15 15 15 15 14 14 13 12 13 13 12 12 11 9 8 6 5 3 2 2 1 1 1 1 2 3 2 2 3 4 3 1 1 2 3 6 6 6 7 3 4 6 5 0 4 4 2 5 6 5 9 4 4 2 2 3 2 3 4 3 4 1 1 4 1 2 2 1 1 1 1 0 1 1 6 1 2 3 2 2 1 6 7 7 6 7 8 10
15 15 14 14 13 13 13 11 11 12 11 10 9 8 7 5 4 2 2 3 2 2 1 2 3 1 1 1 6 6 2 4 0 0 4 6 7 6 3 4 3 3 5 1 3 4 2 8 4 5 1 3 4 0 2 1 5 4 8 4 5 5 2 3 2 2 2 1 2 2 0 0 2 1 8 2 5 2 4 1 2 4 5 6 6 6 6 7
16 15 14 13 13 13 14 13 13 12 11 11 9 7 7 5 4 2 2 2 2 0 1 3 4 1 0 2 5 5 2 1 0 0 3 3 3 3 5 6 3 4 5 4 2 3 3 6 7 2 2 3 2 2 0 2 3 3 2 2 3 4 1 5 1 1 2 0 0 0 0 3 0 6 7 4 3 2 2 3 3 5 5 4 4 4 6 9
16 15 13 12 13 13 13 13 13 13 12 10 9 7 6 5 3 1 2 1 0 2 3 4 3 1 1 2 6 5 1 1 0 4 2 3 4 3 4 3 3 3 1 3 4 3 3 7 5 7 1 5 4 1 3 6 1 2 7 2 2 2 2 2 2 2 1 0 2 2 3 7 8 12 3 1 5 2 0 3 5 5 5 4 4 5 6 5
16 15 14 14 13 13 14 13 13 12 11 10 8 7 6 5 3 1 2 2 1 2 3 5 4 1 1 3 3 2 1 2 2 4 1 1 4 1 3 4 4 2 2 5 3 3 5 2 8 7 2 4 2 1 4 3 4 5 1 4 1 1 3 2 1 2 4 1 2 1 3 7 6 1 2 3 1 1 4 5 5 5 6 5 4 5 7 8
16 15 15 15 13 13 13 13 13 12 11 10 9 7 6 5 2 1 2 2 2 5 6 4 2 2 2 3 2 4 2 1 1 0 1 3 4 2 2 4 7 6 4 5 3 2 4 6 7 3 2 1 3 4 3 3 4 2 4 2 2 3 3 5 2 0 4 1 3 4 2 8 9 10 5 2 2 2 6 6 5 6 6 6 5 6 7 10
16 15 15 14 14 13 12 11 12 12 11 10 9 7 7 5 3 0 2 1 3 4 2 2 1 1 4 1 1 2 1 1 3 1 0 2 1 2 2 5 2 4 4 4 3 3 5 7 8 2 3 4 7 7 5 3 1 4 2 1 2 0 4 4 0 1 3 1 3 2 6 4 3 2 3 1 5 2 1 5 5 6 6 6 6 6 6 8
16 15 15 15 15 14 12 11 10 11 11 10 10 7 5 3 3 4 3 2 3 3 1 1 1 0 3 1 1 0 2 2 2 0 2 2 1 6 5 4 3 4 5 3 4 3 6 5 2 2 4 6 3 6 7 1 2 3 2 2 3 3 1 2 4 1 2 1 4 3 2 6 5 8 5 4 1 4 4 6 7 6 6 6 5 5 7 7
16 15 15 15 15 14 12 11 11 12 11 10 6 6 4 6 5 6 3 3 1 3 2 1 1 1 6 1 2 3 0 1 1 3 4 1 4 4 4 3 1 5 4 3 4 2 3 2 2 5 2 2 2 4 7 9 9 6 2 1 1 0 3 3 1 1 1 2 2 1 2 10 12 10 10 6 1 1 7 7 7 8 8 8 6 6 7 7
16 16 16 16 15 15 14 12 13 13 12 11 7 7 6 6 3 2 4 1 2 3 1 3 5 6 5 8 2 2 1 2 2 2 1 1 2 4 4 4 5 6 2 3 2 2 2 4 4 4 6 3 7 8 9 4 6 8 9 6 4 4 3 2 4 2 1 1 2 3 6 7 9 9 10 8 2 1 6 5 6 8 8 9 8 8 7 9
17 17 17 16 15 15 14 14 13 14 15 8 4 3 1 3 2 2 1 1 1 2 0 2 2 1 1 2 5 1 1 1 4 4 0 2 1 3 5 2 3 5 5 5 1 2 1 5 6 8 8 7 5 5 4 3 6 5 4 4 3 4 1 2 2 2 0 1 4 4 5 6 12 11 12 13 3 5 6 9 9 8 8 9 8 8 9 9
18 18 17 16 16 15 15 14 13 14 12 3 3 2 5 8 10 3 2 4 2 2 0 3 4 1 0 0 0 5 6 2 3 1 0 0 0 7 1 2 2 3 1 1 4 0 3 4 8 6 7 9 6 7 9 8 4 6 5 5 1 1 2 0 1 3 2 1 1 1 3 9 12 12 12 9 5 10 11 11 11 11 10 9 9 10 11 12
19 20 18 18 16 16 15 14 14 12 8 3 1 2 1 3 1 2 6 2 3 1 2 2 1 2 1 2 1 1 4 4 3 1 1 1 2 6 2 4 4 8 0 3 3 3 3 9 8 5 4 9 7 5 4 6 5 3 5 3 3 3 3 3 1 2 3 1 4 1 4 9 11 11 12 9 11 7 4 6 7 6 9 9 8 9 11 9
19 19 18 18 17 16 14 14 14 11 4 4 4 1 3 2 0 2 3 3 2 1 1 1 4 1 1 3 1 2 2 3 6 2 2 1 2 1 5 5 5 4 2 3 9 5 3 6 7 4 6 8 3 3 7 7 6 6 5 4 6 2 3 2 2 1 3 2 2 1 5 11 8 6 12 11 6 7 5 6 9 7 10 12 12 7 7 10
20 19 18 17 17 15 15 15 12 7 4 4 1 5 1 1 2 3 2 2 2 1 0 0 1 2 2 4 3 3 3 1 4 7 2 4 6 2 5 3 6 4 7 5 8 10 7 1 1 9 5 9 5 1 6 5 3 1 4 3 4 2 2 2 1 0 1 1 2 1 3 8 3 4 3 2 3 3 5 4 6 8 8 10 9 9 8 10
19 18 19 18 16 16 15 14 7 3 4 1 4 5 3 2 0 1 4 1 2 1 1 1 2 1 2 1 1 2 1 2 0 0 1 4 4 4 3 1 4 4 4 3 4 3 3 1 4 7 3 3 6 3 5 7 2 0 4 6 5 5 6 0 1 3 3 1 3 3 3 2 4 6 8 8 7 8 3 5 8 6 6 5 8 11 6 6
18 18 19 17 17 17 17 8 4 5 7 5 5 3 4 2 0 1 6 3 2 1 2 4 1 3 3 0 2 2 3 1 1 1 1 2 3 3 2 1 1 8 3 6 7 3 3 0 2 6 7 4 5 6 5 5 6 4 5 5 3 6 6 6 3 3 0 1 2 1 1 5 5 4 5 5 8 11 8 2 9 9 8 5 8 8 6 6
19 19 18 18 18 19 10 4 4 9 5 6 6 2 3 3 0 0 3 4 3 3 5 1 2 1 2 1 3 3 6 4 0 2 2 3 1 1 5 4 3 4 2 2 2 3 2 1 4 4 5 5 5 4 4 8 8 5 1 6 7 7 7 5 5 2 1 1 2 4 3 1 8 7 5 4 5 9 9 10 8 7 7 7 7 7 6 6
20 19 19 20 20 17 1 6 11 9 5 1 3 6 3 3 1 1 4 3 3 4 3 2 1 2 1 0 5 2 1 2 5 3 0 2 1 3 3 6 6 8 2 4 8 1 3 4 4 5 2 4 7 4 4 5 7 2 1 4 5 6 5 5 5 5 0 1 6 4 1 0 5 8 4 2 3 6 8 7 7 7 7 6 6 6 5 5
19 19 19 19 20 14 5 7 7 8 2 2 5 6 4 4 3 6 3 2 0 3 3 5 4 1 2 1 2 2 0 4 2 1 2 2 4 2 2 4 5 6 4 2 6 1 2 2 5 6 6 6 2 1 2 5 3 1 6 7 7 7 7 4 4 4 1 1 5 3 1 2 8 6 6 2 1 5 3 3 6 5 6 5 6 6 5 4
18 19 19 19 15 7 3 2 5 2 2 4 5 6 5 3 3 3 3 7 4 2 1 1 2 6 2 8 0 3 2 2 1 0 2 3 2 5 3 3 5 5 2 5 5 4 1 3 4 3 3 2 5 3 1 2 1 9 3 8 7 8 4 3 7 2 3 1 5 4 4 1 4 5 5 1 1 3 1 3 3 4 5 5 5 5 5 5
21 19 19 19 10 6 4 6 7 2 4 5 6 6 5 6 5 3 6 6 3 1 2 1 3 3 9 11 6 2 3 1 0 3 3 1 2 3 3 3 4 6 4 4 2 4 1 1 1 0 3 3 3 5 5 3 4 4 3 4 6 4 6 5 5 5 1 5 4 1 1 0 6 6 3 8 4 4 2 1 3 5 5 5 6 6 5 4
19 19 19 13 4 6 6 2 4 4 5 6 6 6 6 4 3 9 4 1 3 6 6 5 2 5 14 9 7 7 7 2 0 4 9 6 7 9 8 9 6 6 2 5 5 1 1 2 1 2 3 6 3 9 5 2 3 5 6 7 7 2 4 2 3 2 5 5 1 3 1 1 7 10 4 4 7 4 6 6 4 4 6 6 7 9 8 5
18 18 17 9 4 6 3 1 4 5 5 4 6 4 5 6 8 11 1 5 2 4 6 3 7 8 8 8 6 4 1 8 2 1 4 0 7 3 1 3 5 6 9 3 5 3 4 1 1 1 2 3 5 10 2 2 1 4 9 7 6 2 1 3 3 1 5 5 4 1 0 3 4 9 13 15 9 4 5 7 7 5 5 6 7 9 9 7
19 16 11 7 5 5 2 5 5 7 7 3 8 6 5 4 11 5 5 3 1 2 5 3 4 4 12 12 7 8 5 2 5 2 2 5 6 8 6 3 4 2 7 3 7 7 4 4 6 7 2 3 1 3 11 8 8 7 1 7 8 8 5 3 3 4 4 4 2 3 1 6 5 2 1 5 4 4 4 5 5 5 8 8 3 7 9 7
19 15 9 8 5 2 6 5 5 6 7 6 7 8 12 15 5 8 9 3 1 2 3 1 10 9 4 4 0 2 3 2 2 5 2 7 8 7 12 11 4 5 3 9 4 3 8 4 3 2 1 2 7 1 3 6 5 0 3 5 5 6 5 1 4 3 1 0 1 1 5 4 4 2 8 4 4 5 5 5 4 5 4 5 7 1 3 3
17 10 11 6 6 4 5 5 4 4 8 8 9 8 16 9 4 3 5 5 2 5 5 7 3 7 2 2 1 5 3 3 4 4 3 6 3 9 4 2 8 9 10 10 5 5 3 4 1 6 4 1 2 1 0 2 8 4 4 4 4 2 10 7 1 1 1 4 7 2 7 6 8 7 8 1 2 4 1 2 1 2 4 4 3 4 2 2
8 10 7 5 5 5 6 5 5 5 5 8 9 14 6 1 2 5 3 7 6 13 7 10 5 7 7 7 6 8 5 5 3 4 5 2 4 5 5 6 4 5 4 9 1 2 10 3 2 3 1 1 0 0 2 5 2 9 2 7 2 2 5 5 3 2 4 3 7 2 7 5 3 6 5 4 3 5 1 3 0 2 2 1 1 2 1 2
3 4 3 4 2 4 4 5 7 4 4 7 13 12 2 4 1 2 0 5 5 2 6 7 1 6 7 8 7 9 3 7 8 3 5 6 4 6 7 3 4 11 9 1 4 3 7 2 0 1 0 5 2 0 4 2 3 3 2 4 5 3 1 2 4 1 1 2 5 3 2 4 6 6 4 1 3 7 7 2 1 0 1 1 1 2 4 3
3 4 4 1 2 3 2 4 4 7 6 8 12 9 2 0 0 2 4 4 3 5 7 4 5 4 4 9 5 6 10 10 8 7 8 4 5 4 14 8 4 3 6 5 2 1 1 5 2 1 2 1 2 3 9 3 3 2 3 4 0 3 2 4 6 3 5 4 2 7 3 6 7 6 7 5 6 7 6 1 3 5 5 4 1 4 6 6
2 4 2 1 1 1 1 3 7 4 5 15 13 4 1 2 1 2 1 3 3 3 4 5 1 6 3 3 6 9 5 4 12 8 6 3 8 1 6 5 7 6 9 3 2 3 3 1 3 1 2 2 3 4 10 11 10 2 3 2 1 2 2 5 1 3 4 5 5 2 6 4 7 7 6 9 7 6 5 5 7 7 6 4 3 5 5 6
2 3 1 2 1 2 4 7 6 9 11 3 4 3 1 2 2 0 1 2 2 3 3 4 7 6 6 5 1 2 3 4 5 6 4 2 10 5 7 9 7 8 5 2 4 3 3 2 7 2 2 4 5 1 1 5 5 8 11 11 11 9 4 4 7 3 2 3 4 4 10 3 8 4 8 6 4 1 4 5 7 5 5 4 3 2 6 5
1 4 1 3 3 1 8 9 4 2 1 4 7 3 2 1 3 2 1 0 3 2 1 4 1 4 4 6 5 8 6 5 4 5 4 7 7 4 2 8 6 12 12 9 10 2 4 3 9 4 8 8 1 0 2 1 1 2 3 7 7 4 6 5 7 6 3 1 5 3 1 10 8 2 2 3 3 5 4 6 8 6 5 4 3 2 1 0
2 3 1 2 3 4 4 4 1 2 3 2 1 2 1 1 3 3 3 1 1 1 1 1 5 5 3 3 2 4 10 5 10 10 5 7 3 5 4 7 11 11 8 2 5 4 5 4 5 1 2 2 2 1 1 1 1 1 3 1 5 9 7 7 3 6 8 2 1 1 1 8 3 1 3 4 5 5 3 5 11 6 5 4 3 3 3 3
2 3 2 1 1 4 3 8 11 11 3 1 2 1 2 2 3 3 2 2 2 1 3 3 0 1 3 2 4 8 7 4 3 6 3 2 3 2 2 8 14 9 11 9 12 8 5 3 8 3 2 3 3 2 2 2 1 4 4 4 4 2 5 2 5 1 2 9 8 8 7 7 3 4 2 0 0 4 6 4 2 8 5 4 3 0 0 1
2 1 1 3 3 3 4 1 0 4 2 6 4 4 2 1 1 2 3 4 1 2 2 1 2 3 1 2 3 1 6 5 3 5 2 2 2 1 5 4 7 6 1 2 3 8 5 5 9 8 10 10 8 7 12 14 13 3 0 3 5 9 7 6 4 1 5 3 7 5 9 3 3 3 1 1 2 1 3 3 4 3 4 5 1 1 1 2
2 3 1 2 2 3 3 2 2 1 6 6 6 3 3 2 1 2 3 1 2 1 0 2 1 3 2 4 4 4 7 1 2 3 7 4 2 1 2 4 6 2 2 2 7 9 3 1 7 10 14 15 15 7 2 10 6 6 5 8 4 4 7 4 5 4 11 4 7 9 10 2 4 2 1 5 5 9 7 5 7 5 5 3 1 2 3 1
1 1 3 3 4 2 3 3 3 2 5 4 8 3 6 3 2 0 2 1 3 3 1 0 2 5 2 5 5 5 4 5 1 3 5 5 1 0 3 3 4 4 1 3 5 6 3 3 8 8 11 12 5 4 6 9 8 9 8 9 10 10 10 10 10 14 8 7 8 11 9 8 10 4 6 6 6 6 8 7 7 5 3 3 3 3 3 2
2 1 2 1 1 4 5 4 7 4 2 0 1 3 8 6 3 4 1 1 0 0 3 1 0 1 8 11 6 4 4 4 2 4 1 1 3 0 2 3 2 3 1 1 1 3 6 8 6 6 9 8 3 4 7 6 9 10 14 13 13 13 12 14 15 18 7 10 18 11 9 9 11 8 10 11 11 12 12 13 10 5 1 1 1 1 2 3
1 1 1 1 1 0 2 5 10 6 4 3 1 2 6 11 10 3 4 1 1 1 2 4 4 4 3 1 2 5 7 6 6 1 3 3 3 3 2 2 1 3 3 1 2 2 3 5 5 6 9 9 4 5 4 8 5 3 8 12 15 15 17 18 19 19 16 14 16 8 12 17 15 11 12 11 10 8 3 1 0 3 3 2 1 1 1 1
1 2 1 1 2 3 3 8 8 8 5 7 4 5 5 7 10 3 1 4 4 3 1 2 1 3 2 3 1 4 5 1 3 7 4 6 0 1 4 4 4 1 0 5 4 2 5 4 4 4 4 6 5 3 2 6 6 7 5 7 10 13 16 19 19 19 14 13 10 6 4 11 7 6 8 6 2 2 0 2 7 6 3 3 4 3 2 3
1 1 1 4 3 1 2 6 8 8 5 5 5 3 3 7 8 6 2 1 3 4 4 6 5 2 1 2 1 1 1 2 2 4 8 5 9 6 6 4 5 7 4 3 1 1 4 3 2 3 4 5 1 7 7 2 0 1 5 5 9 12 13 14 15 10 7 9 12 9 11 15 9 10 7 4 1 4 8 9 8 6 2 1 0 2 4 4
1 0 1 2 2 1 4 0 4 7 7 7 6 4 4 7 3 4 1 2 1 3 6 8 6 5 0 2 5 4 4 8 9 7 8 4 5 4 4 3 3 7 7 6 0 6 5 5 5 4 5 5 1 5 6 5 3 3 10 13 18 17 15 11 8 6 12 15 13 11 16 18 4 10 9 3 6 8 8 7 6 4 2 3 3 5 4 4
Wind_Direction
175 178 176 173 173 169 173 177 184 184 184 187 186 182 175 183 191 203 208 204 207 200 205 208 201 207 214 232 264 258 231 133 85 78 159 240 199 152 120 107 134 165 167 101 98 113 19 43 72 342 55 60 318 89 281 56 45 55 91 112 75 206 143 203 173 189 190 117 238 197 208 137 219 212 226 98 29 58 354 145 309 297 253 224 270 250 255 187
173 176 174 170 171 173 174 176 184 185 182 181 180 173 178 183 187 198 205 204 198 198 207 209 209 194 209 238 207 244 161 93 125 159 217 171 150 136 125 130 144 172 173 132 147 153 123 73 82 73 84 63 321 51 331 57 72 93 113 95 214 185 237 155 202 189 120 264 192 186 152 153 217 151 236 124 278 20 128 276 10 306 291 322 335 327 149 154
169 169 171 170 170 170 168 178 184 181 181 180 174 176 181 178 178 203 207 201 200 198 214 229 218 191 175 260 228 233 189 37 348 251 249 171 144 141 143 138 150 164 205 170 204 149 158 167 169 93 25 97 5 132 38 324 66 200 118 191 251 208 240 210 185 186 198 123 140 153 181 136 247 155 30 206 185 34 192 202 316 264 251 250 307 110 155 160
167 166 168 169 169 173 175 178 179 175 179 175 178 173 164 126 189 206 203 193 180 202 227 240 221 137 89 264 237 234 102 71 248 241 279 153 146 147 155 148 147 133 86 58 141 105 110 87 80 95 75 73 316 29 122 271 103 220 86 169 226 197 140 230 183 218 196 176 166 148 117 145 259 210 147 178 117 261 268 231 182 205 219 197 205 173 164 163
171 165 165 168 166 175 180 175 174 173 171 171 164 163 168 177 192 197 195 174 176 206 241 243 231 121 273 245 244 215 113 62 257 221 277 165 143 149 154 139 133 105 147 148 92 61 78 108 96 43 88 120 22 32 315 1 118 100 200 207 189 160 299 276 198 155 146 188 115 134 132 210 90 71 127 155 172 224 211 236 214 214 183 159 173 180 167 173
168 167 163 166 169 176 176 177 175 175 167 167 163 174 179 183 175 183 172 151 172 233 259 259 235 198 233 222 244 71 124 191 298 351 265 143 148 149 142 130 129 116 115 70 104 136 96 21 92 110 49 89 156 138 264 135 357 178 321 282 191 217 199 328 310 251 132 140 142 138 201 92 135 194 195 179 207 229 225 250 243 212 184 160 142 149 169 178
163 164 163 165 168 175 176 179 177 175 171 174 179 180 179 162 168 158 157 136 112 270 260 262 241 178 209 214 259 94 189 269 18 296 320 111 137 143 126 111 103 103 87 97 122 121 99 104 89 144 96 76 15 121 203 126 32 104 188 164 243 180 315 316 297 197 191 129 181 188 80 138 132 210 123 213 245 222 156 251 261 193 133 150 147 178 176 186
161 162 160 160 163 173 178 169 170 176 180 180 179 180 168 160 148 157 128 132 245 301 277 257 248 235 205 240 125 243 43 258 199 325 6 92 99 117 107 65 93 96 118 156 147 127 128 130 140 165 83 142 204 131 203 93 11 123 169 203 212 100 272 326 60 66 142 134 21 112 126 264 185 182 64 252 251 261 288 51 82 122 135 155 165 177 189 196
160 161 160 160 162 173 177 173 172 182 183 179 173 176 162 153 152 150 144 161 224 287 284 255 281 266 241 273 117 115 242 240 146 357 101 103 121 131 171 102 76 121 128 82 58 166 131 239 116 185 208 136 165 112 199 124 292 173 194 127 71 99 330 331 19 43 38 124 95 92 34 320 250 248 245 245 272 295 275 70 109 119 146 178 187 187 185 194
160 162 161 162 164 170 173 171 174 175 179 177 173 167 164 149 148 151 169 207 233 248 269 338 339 290 264 118 71 166 257 141 24 4 129 129 119 101 42 129 113 120 117 264 98 131 170 198 165 184 119 72 138 106 160 122 212 140 98 105 114 316 330 5 140 345 331 103 326 160 257 290 316 77 284 331 306 319 100 82 128 149 184 199 196 196 205 197
161 163 162 163 165 168 165 163 174 173 177 179 178 175 163 150 145 128 195 222 230 235 15 34 360 230 215 105 131 211 175 107 144 344 154 144 128 122 168 159 169 94 109 176 184 189 179 148 144 110 48 216 130 67 128 200 120 80 135 118 34 349 51 358 57 354 351 30 25 133 213 278 302 94 228 239 330 300 143 149 179 197 208 206 212 209 212 222
162 163 161 162 164 165 161 164 173 179 178 179 179 179 162 153 146 159 222 236 228 64 64 37 64 108 75 86 149 208 188 182 79 58 157 139 116 154 174 172 158 153 144 166 222 226 165 156 132 101 176 134 86 132 81 136 74 148 180 142 311 4 75 4 102 317 355 182 2 255 52 311 141 225 250 234 348 53 138 209 230 234 237 238 238 232 221 224
162 161 155 154 158 158 158 161 172 178 180 176 177 180 160 152 163 173 236 245 190 112 60 63 72 84 139 110 241 228 229 210 166 154 65 81 110 63 102 127 131 137 157 148 196 203 141 137 118 90 72 99 156 111 172 77 22 109 45 126 29 8 341 314 313 326 92 259 9 331 271 269 263 249 264 317 341 360 143 254 253 250 251 251 244 236 245 245
161 160 152 155 151 151 154 161 172 178 175 174 173 175 163 156 157 201 256 260 353 89 65 77 82 94 136 236 263 240 239 152 167 106 22 250 96 26 59 41 78 70 27 97 74 97 101 69 89 115 122 98 136 195 65 357 21 139 236 60 140 94 250 310 16 309 144 339 313 121 211 281 278 278 277 308 323 216 256 247 256 262 268 253 237 237 242 245
161 159 156 155 153 152 154 162 174 172 174 175 174 164 164 159 125 133 283 286 82 89 81 85 90 128 90 268 282 290 237 135 166 151 258 132 122 67 39 42 49 49 80 99 118 58 110 98 88 59 93 285 107 79 36 42 16 27 78 277 325 160 276 297 27 57 170 333 42 90 309 249 264 273 282 323 28 156 227 260 273 270 262 263 259 250 249 249
160 158 156 152 152 154 159 164 172 171 172 171 166 160 116 110 108 354 289 262 134 105 83 93 85 117 98 291 208 45 71 153 187 224 279 124 107 129 162 116 117 26 44 31 53 86 42 82 72 170 124 33 65 98 68 71 343 359 109 240 204 122 252 347 189 325 309 119 4 163 222 319 325 267 289 11 67 76 257 292 285 278 268 260 245 243 250 268
160 155 151 151 152 157 161 166 167 170 167 164 161 132 118 129 139 100 93 93 55 116 82 163 131 116 149 282 55 177 222 240 295 61 18 18 112 149 103 63 40 60 60 72 22 53 360 65 282 42 26 121 147 104 91 351 310 247 30 152 210 168 244 254 307 306 14 90 213 5 215 237 249 288 293 306 39 2 330 295 291 285 274 263 264 253 252 247
158 151 151 151 155 158 163 164 170 169 162 162 142 136 136 143 140 115 55 29 37 97 70 144 122 67 258 55 188 219 183 166 91 154 68 313 110 75 91 97 44 84 78 74 357 83 330 67 29 176 31 52 121 98 149 204 186 195 179 91 264 241 208 226 126 219 14 10 183 345 263 275 276 285 288 274 191 302 276 270 280 284 283 278 261 257 251 254
152 150 149 152 155 160 163 163 171 164 162 164 152 153 135 131 95 91 86 351 94 57 98 201 159 164 204 207 184 66 153 190 134 76 116 63 28 97 62 81 92 118 87 85 250 117 347 73 38 75 164 150 195 178 173 202 158 183 179 178 149 154 211 207 239 279 162 164 246 230 230 267 283 288 290 295 122 256 269 283 279 271 267 268 264 259 254 248
150 149 152 155 156 158 161 169 171 166 164 154 148 128 70 87 40 63 341 353 268 169 220 216 157 197 80 25 130 239 256 68 124 351 31 308 120 67 40 67 39 61 115 163 142 98 108 136 178 194 194 185 196 178 166 178 152 113 79 100 175 168 277 275 279 278 3 104 246 239 269 277 278 272 275 280 316 306 283 278 270 264 266 265 264 258 254 247
154 154 156 155 159 160 159 169 170 172 155 101 164 173 163 175 125 213 175 262 189 170 146 296 194 154 81 128 287 158 122 356 60 54 53 106 221 123 253 59 78 109 28 175 136 245 67 153 227 202 191 186 169 122 109 74 55 137 140 143 200 187 163 221 105 347 328 139 292 39 333 275 262 274 270 278 318 276 259 260 262 261 256 259 262 270 261 256
158 160 160 160 162 163 159 168 171 168 121 109 131 201 261 177 141 179 123 170 219 143 128 227 112 41 336 185 278 142 72 90 60 54 328 116 145 143 265 112 146 164 182 118 61 103 163 201 220 197 114 92 93 93 75 123 114 58 145 160 104 253 240 296 328 334 332 76 268 27 331 276 269 263 268 253 253 252 243 222 245 253 269 262 257 257 270 285
160 161 160 162 164 161 161 165 173 156 127 144 202 222 229 234 228 203 100 87 78 341 68 66 149 59 4 333 283 303 100 138 174 247 220 58 116 160 143 118 130 129 91 159 156 134 187 274 239 148 134 108 62 83 96 75 68 112 99 117 199 238 130 242 283 350 358 76 312 294 315 281 277 279 265 269 250 270 260 252 256 236 251 257 255 256 269 275
161 159 160 161 161 161 159 165 151 128 187 194 210 216 236 118 169 130 67 150 184 276 81 262 139 156 174 142 219 105 122 211 119 190 300 114 146 185 115 140 124 123 183 178 158 167 185 258 319 134 152 142 142 156 126 119 154 351 122 129 125 156 229 149 188 344 350 28 53 330 277 295 324 332 331 324 330 313 288 318 280 261 245 266 290 287 248 260
159 158 162 160 162 154 162 145 145 193 100 75 283 245 228 264 89 144 94 41 16 13 260 16 117 236 194 88 9 168 234 77 322 184 224 128 148 95 172 174 110 190 154 160 112 135 258 318 125 107 115 98 121 162 202 138 167 19 231 171 189 177 142 230 20 129 25 335 357 53 346 317 301 286 244 286 343 325 301 318 283 294 293 281 270 264 274 254
154 158 161 157 157 157 153 151 202 117 141 196 215 253 208 197 136 207 97 70 229 244 35 199 138 228 132 271 36 149 108 178 313 237 82 210 164 133 109 79 104 198 145 132 160 169 195 17 108 157 143 139 145 179 217 153 164 132 248 171 153 143 128 126 115 80 351 158 360 27 156 269 320 301 289 331 335 309 316 296 290 299 298 289 268 279 279 263
152 155 154 159 159 157 151 201 124 125 141 258 226 186 175 168 182 171 67 7 320 184 151 283 74 223 45 209 141 118 130 237 96 41 54 337 131 336 132 187 39 29 147 159 59 247 95 91 84 81 102 125 142 208 230 153 127 212 252 123 111 113 130 158 106 106 181 243 294 39 93 235 304 286 265 319 329 302 315 319 313 309 304 300 295 284 277 273
156 155 159 162 166 168 65 119 144 177 207 221 129 144 150 165 83 35 80 100 251 127 140 241 233 348 86 328 68 147 223 176 104 227 83 296 102 12 93 201 161 163 171 105 184 281 124 157 157 151 97 121 181 212 185 147 132 227 227 126 124 133 139 111 90 103 125 31 280 334 324 282 255 266 315 342 316 300 313 302 307 316 317 314 311 311 294 270
160 159 160 167 170 166 90 144 175 187 229 146 138 114 108 85 82 122 151 151 247 83 279 108 263 62 16 14 66 49 46 4 133 228 313 55 29 157 100 203 120 115 38 152 173 239 352 157 210 151 139 186 227 342 136 129 114 236 130 93 92 79 69 91 102 82 346 69 273 230 351 201 281 279 332 332 230 287 263 282 300 303 307 321 332 335 343 341
163 160 164 169 163 171 165 63 202 244 127 135 129 116 78 79 105 136 122 235 124 204 113 181 151 196 130 147 262 6 117 341 86 42 32 142 337 39 22 147 116 95 82 24 81 181 215 326 187 91 184 186 127 46 115 18 113 133 112 74 39 39 29 31 62 85 62 355 252 254 306 154 297 276 234 86 199 197 277 307 300 321 350 356 351 344 339 341
170 164 169 170 173 158 120 168 226 213 187 135 125 97 88 44 143 122 198 220 60 68 29 150 171 78 143 154 173 312 83 345 108 152 112 5 27 52 150 52 46 55 58 16 53 330 28 8 87 273 72 110 105 77 26 78 97 125 99 127 76 358 10 30 346 34 125 268 261 277 269 16 173 290 309 232 281 228 195 254 294 314 316 326 334 336 331 327
168 169 171 171 149 137 184 212 186 162 167 158 115 110 118 132 346 193 205 54 151 194 163 179 263 154 178 177 142 158 144 43 64 158 153 175 157 152 200 164 164 89 214 179 209 350 37 122 224 357 199 125 121 86 1 23 351 80 87 82 115 232 35 290 12 262 213 199 243 339 175 350 242 231 244 306 259 259 225 213 223 251 287 307 315 321 318 317
166 172 165 173 139 164 234 242 149 173 142 132 92 72 126 126 202 212 197 194 251 137 221 122 173 175 164 135 176 158 319 151 218 153 100 74 142 237 330 149 185 140 189 205 111 117 273 291 13 296 72 221 147 130 133 140 294 110 138 141 106 127 86 233 276 259 309 293 271 310 311 267 249 280 249 243 243 205 226 232 236 245 261 282 290 300 304 322
167 165 165 177 167 181 154 151 181 153 127 98 111 84 53 155 224 158 168 214 166 359 79 115 88 72 156 174 186 169 133 289 153 182 131 164 149 180 233 266 142 91 81 157 156 189 146 289 251 148 220 161 164 164 176 158 160 202 80 144 176 141 155 204 196 202 215 201 286 281 69 232 128 242 261 230 253 262 261 276 279 283 283 280 254 257 279 286
173 166 162 172 174 169 160 174 176 162 122 118 112 164 177 216 183 158 185 182 247 51 49 143 128 140 192 11 234 233 127 147 189 119 163 144 194 189 186 196 222 114 141 125 254 101 206 211 274 316 267 146 166 242 114 99 45 331 162 84 92 219 139 125 207 142 193 345 5 247 217 189 167 293 280 248 287 286 283 281 298 301 290 316 320 285 263 282
167 172 170 174 177 182 163 173 161 142 140 124 145 178 207 196 199 196 195 145 126 115 113 62 53 141 160 67 329 206 318 111 211 123 205 197 208 192 197 189 183 195 164 177 169 170 42 239 353 308 50 103 151 165 150 140 176 219 106 198 208 124 98 97 62 14 83 42 256 162 312 289 300 315 276 337 316 286 332 294 342 301 301 316 304 293 304 313
146 151 174 157 174 170 170 158 149 117 122 154 163 206 199 26 189 158 127 148 182 133 134 133 234 152 175 197 175 197 209 82 177 127 211 142 286 198 193 223 170 192 247 127 271 213 153 217 353 62 156 341 209 133 104 34 146 97 181 228 182 138 125 125 202 354 64 186 265 95 226 290 32 275 330 330 289 286 269 227 275 284 312 23 319 304 332 10
91 113 92 109 144 160 152 159 120 83 105 157 206 205 16 138 216 138 254 98 109 112 129 160 221 96 202 159 203 181 222 169 185 173 188 185 238 187 177 177 198 189 188 296 151 231 120 87 318 358 68 289 2 79 49 11 40 141 199 190 113 216 208 322 89 249 163 269 270 297 266 253 190 237 331 305 216 247 251 247 76 243 101 99 350 39 53 63
115 121 116 33 278 165 155 149 92 125 139 188 216 210 244 161 93 172 211 161 118 126 150 218 129 232 142 189 178 179 171 184 167 192 153 232 204 201 185 164 206 187 157 148 101 156 78 143 281 339 134 284 4 103 196 200 345 48 90 84 298 101 161 128 199 175 126 240 61 288 45 245 204 217 203 226 217 223 220 158 202 196 179 155 132 89 94 94
41 75 75 83 316 10 81 110 100 134 166 203 206 208 157 110 214 252 261 159 174 118 211 162 254 132 170 201 157 168 221 184 173 193 194 197 198 297 195 214 166 187 167 158 131 164 163 122 172 290 301 80 181 199 215 166 152 71 97 176 118 38 223 108 28 126 182 171 184 229 314 281 258 214 189 218 210 221 199 178 189 187 189 177 169 122 117 101
327 87 119 41 62 100 70 99 127 185 202 337 57 148 131 173 172 307 18 110 101 333 146 155 159 159 176 114 218 169 159 138 183 187 192 207 192 209 214 188 144 157 123 77 112 186 101 183 178 127 59 228 240 272 208 168 186 165 164 188 171 127 136 157 252 35 102 125 228 137 255 271 269 178 200 218 236 223 227 188 176 188 199 204 202 145 109 99
62 100 216 358 18 125 134 131 191 166 145 172 198 163 169 116 93 165 67 14 82 130 7 101 12 126 146 177 156 168 145 176 188 191 234 193 221 197 281 138 147 146 150 183 180 236 140 123 105 171 201 195 172 9 255 305 145 180 162 211 171 170 101 120 201 234 55 271 101 154 320 269 246 222 211 243 234 248 226 159 151 178 194 205 196 146 95 126
29 117 314 347 325 82 111 135 33 160 168 240 25 34 18 64 127 203 144 283 102 93 77 96 189 132 264 133 169 161 167 188 173 200 188 211 248 198 227 153 136 156 136 128 67 214 92 98 91 330 314 319 327 317 41 40 68 327 289 115 153 200 189 178 161 176 158 162 113 355 253 253 288 273 253 247 262 264 256 187 153 186 196 219 201 118 60 27
24 35 354 336 35 100 124 176 188 196 149 10 77 114 2 167 135 126 205 184 149 140 165 167 18 251 162 144 136 176 189 167 236 194 263 192 209 67 187 167 163 166 164 200 174 199 161 252 138 134 31 346 344 345 354 348 47 211 194 198 204 91 74 130 104 72 120 216 171 130 235 266 270 320 302 25 130 167 178 223 203 157 206 213 191 120 335 303
87 6 20 305 14 77 159 283 7 126 136 154 143 152 153 43 231 171 149 175 129 156 117 222 186 146 109 158 135 105 198 179 165 225 115 214 191 37 15 140 214 176 149 282 84 161 180 172 143 156 177 182 197 191 214 211 203 183 232 180 186 159 140 124 187 148 196 267 152 174 236 256 281 328 19 46 112 235 261 254 244 224 202 200 153 255 263 256
171 147 221 46 41 49 37 22 8 111 149 155 161 209 128 128 347 321 115 105 165 117 57 128 27 88 109 126 142 163 196 292 140 187 182 202 220 348 269 338 185 191 258 135 146 141 164 149 194 189 194 206 211 207 30 87 76 186 212 151 166 164 179 144 107 112 210 203 175 228 226 200 246 268 246 205 174 189 210 229 251 218 220 240 186 233 238 211
87 113 158 171 105 137 154 148 160 233 185 193 180 155 185 153 145 16 224 136 216 155 92 70 176 147 227 142 174 182 199 187 339 112 192 148 260 245 329 127 88 34 56 84 150 93 88 185 220 206 223 224 182 156 205 145 164 197 150 182 176 169 180 171 181 217 191 90 249 232 215 219 234 240 230 224 226 224 221 207 223 256 259 197 180 226 293 14
130 257 88 294 133 181 158 206 169 169 280 107 190 137 180 154 178 164 36 328 101 314 132 311 307 261 180 175 150 161 171 176 144 200 48 335 105 342 59 3 110 316 9 128 305 144 145 199 224 171 239 237 159 176 173 172 178 185 186 173 174 182 178 185 213 224 159 193 229 231 142 216 232 200 214 209 196 198 205 209 204 207 227 119 208 330 4 16
63 66 170 2 141 243 159 120 146 150 158 195 44 140 173 181 191 179 158 123 61 244 165 192 225 207 182 255 149 160 162 156 240 185 162 156 166 119 91 38 302 17 140 83 142 178 126 233 201 172 219 237 190 174 187 175 197 167 191 189 184 177 189 196 214 220 205 218 230 228 169 216 223 196 210 218 210 203 208 226 135 232 212 172 202 240 141 116
252 127 211 19 69 78 133 138 154 152 166 187 181 216 173 194 193 138 191 144 168 249 120 183 217 159 161 134 114 146 206 209 182 169 219 133 104 115 195 186 154 8 37 167 165 265 156 261 121 143 195 253 214 157 172 205 176 204 221 196 189 193 199 203 213 222 219 238 249 253 231 266 247 177 217 240 166 143 85 245 235 227 128 186 184 163 179 145
134 104 114 122 113 237 152 154 154 164 165 182 211 203 163 191 202 173 182 167 146 161 164 191 131 98 84 125 99 86 285 123 143 168 165 159 173 214 141 240 142 157 161 130 122 147 147 242 51 97 176 281 210 166 202 123 71 219 244 200 195 196 210 221 219 219 188 213 232 239 256 254 251 140 213 218 177 215 223 227 235 242 209 192 108 123 110 99
63 318 108 98 101 194 173 271 152 141 202 193 183 176 174 203 198 140 323 319 188 159 158 136 161 115 27 153 219 167 163 114 107 111 111 97 102 94 84 115 128 153 166 157 118 138 177 147 146 144 177 240 292 156 126 111 72 288 242 223 208 206 208 218 230 231 212 203 214 213 233 243 196 176 186 216 184 219 229 227 232 263 246 200 156 132 118 98